User: anonymous   Login
Location: Caltech
(34.1382°N, 118.1253°W)
Time: 22:33:42
(UTC-07:00)
Language:

Cosmos 1508 Rocket - Orbit

View from above orbital plane
View from above orbital plane
View from above satellite
View from above satellite

Ground track
Ground track

The orbit data is extracted from the following two-line orbital elements,

1 14484U 83111B   14303.52997464  .00069764  00000-0  86145-3 0  6853
2 14484 082.8377 197.4217 0184405 145.3554 301.8323 15.42124776593330
Epoch (UTC): 30 October 2014 12:43:09
Eccentricity: 0.0184405
inclination: 82.8377°
perigee height: 314 km
apogee height: 565 km
right ascension of ascending node: 197.4217°
argument of perigee: 145.3554°
revolutions per day: 15.42124776
mean anomaly at epoch: 301.8323°
orbit number at epoch: 59333

The dashed part of the orbit path shows where the satellite is in the earth's shadow,  

DLR